Miscellaneous Local Product
Issued by NWS North Platte, NE

Home | Current Version | Previous Version | Text Only | Print | Product List | Glossary On
Versions: 1 2 3 4 5 6 7 8 9 10 11 12 13 14 15 16 17 18 19 20 21 22 23 24 25 26 27 28 29 30 31 32 33 34 35 36 37 38 39 40 41 42 43 44 45 46 47 48 49 50
000
AXUS43 KLBF 201910
MISLBF


WESTERN AND NORTH CENTRAL NEBRASKA HOURLY WEATHER ROUNDUP
NATIONAL WEATHER SERVICE NORTH PLATTE NE
100 PM CST FRI JAN 20 2017

NOTE: "FAIR" INDICATES FEW OR NO CLOUDS BELOW 12,000 FEET WITH NO
SIGNIFICANT WEATHER AND/OR OBSTRUCTIONS TO VISIBILITY.

NOTE: STATIONS NOT REPORTING VARIABLES SUCH AS SKY/WEATHER OR
PRESSURE ARE PROVIDED BY RAWS AND APRS NETWORKS AND ARE NOT UNDER
NATIONAL WEATHER SERVICE QUALITY CONTROL.

...OBSERVATIONS IN AND NEAR THE EASTERN PANHANDLE OF NEBRASKA...

CITY           SKY/WX    TMP DP  RH WIND       PRES   REMARKS
PINE RIDGE     MOSUNNY   35  28  75 W7        29.36F WCI  29
CHADRON        MOSUNNY   35  28  75 SW5       29.37F WCI  31
ALLIANCE       MOSUNNY   40  29  64 NW14      29.34F WCI  32
SIDNEY         CLOUDY    41  29  62 NW16      29.38F
CRESCENT LAKE    N/A     40  29  65 NW9         N/A  WCI  34
$$

...OBSERVATIONS IN NORTHERN NEBRASKA AND FAR SOUTHERN SOUTH DAKOTA...

CITY           SKY/WX    TMP DP  RH WIND       PRES   REMARKS
WINNER         FAIR      42  29  59 SW8       29.34F
VALENTINE      SUNNY     42  26  53 SW9       29.33F
THEDFORD       CLOUDY    35  33  90 S15       29.38F WCI  26
AINSWORTH      SUNNY     42  33  71 S16       29.35F
O`NEILL        PTSUNNY   47  38  71 S17G23    29.38F
ORD            CLOUDY    40  38  93 S8        29.40F WCI  34
BROKEN BOW     CLOUDY    40  37  89 S7        29.39F
VALENTINE NWR    N/A     42  30  62 SW8         N/A
BUTTE            N/A     43  34  71 S10G17      N/A
HALSEY           N/A     37  34  90 S8G16       N/A  WCI  31
SARGENT          N/A     40  33  75 S3          N/A
CHAMBERS         N/A     47  39  73 S5          N/A
EWING            N/A     42  41  95 S10         N/A
$$

...OBSERVATIONS IN SOUTHWEST NEBRASKA AND FAR NORTHEAST COLORADO...

CITY           SKY/WX    TMP DP  RH WIND       PRES   REMARKS
WRAY           MOCLDY    43  32  65 NW13      29.42F
HOLYOKE        FAIR      43  32  65 W9G16     29.38F
IMPERIAL       CLOUDY    32  32 100 CALM      29.38F
OGALLALA       CLOUDY    38  37  96 CALM      29.37F
NORTH PLATTE   CLOUDY    39  34  82 W6        29.40F WCI  35
MCCOOK         CLOUDY    36  35  96 W3        29.41F
LEXINGTON      CLOUDY    40  39  95 SW3       29.41F
STAPLETON        N/A     35  33  94 CALM        N/A
GOTHENBURG       N/A     41  34  77 S3          N/A
CALLAWAY         N/A     39  37  92 W12         N/A  WCI  32
$$

...OBSERVATIONS IN CENTRAL LINCOLN COUNTY AREA...

CITY           SKY/WX    TMP DP  RH WIND       PRES   REMARKS
N.P. AIRPORT   CLOUDY    39  34  82 W6        29.40F WCI  35
N.P. DOWNTOWN    N/A     38  35  89 CALM        N/A
N.P. SOUTHEAST   N/A     38  34  85 SW3         N/A
N.P. HILLCREST   N/A     36  35  96 W3          N/A
$$

...SOME OBSERVATIONS FROM AROUND THE REGION...

CITY           SKY/WX    TMP DP  RH WIND       PRES   REMARKS
LARAMIE        CLOUDY    29  20  69 CALM      29.41F
CHEYENNE       CLOUDY    38  21  50 NW12      29.39F WCI  30
DENVER         CLOUDY    39  29  67 S10       29.40F WCI  32
AKRON          CLOUDY    37  30  75 W12       29.39F WCI  29
SCOTTSBLUFF    CLOUDY    41  29  62 W13       29.38F
RAPID CITY     SUNNY     41  31  67 NW17      29.32F
BISMARCK       CLOUDY    29  27  92 NW3       29.37F FOG
PIERRE         CLOUDY    19  15  84 SW7       29.32F WCI  10
SIOUX FALLS    CLOUDY    40  39  97 S14       29.44F FOG     WCI  32
OMAHA          CLOUDY    44  40  85 SE8       29.49F
GRAND ISLAND   CLOUDY    41  41 100 S7        29.43F
KANSAS CITY    FOG       48  46  93 SE9       29.48F VSB 1/2
WICHITA        CLOUDY    50  45  83 S7        29.43F HAZE
OKLAHOMA CITY  MOSUNNY   60  36  40 SW24G33   29.51F
DALLAS         MOSUNNY   74  37  26 SW21      29.64F
AMARILLO       SUNNY     57  27  31 SW32G44   29.52F
DODGE CITY     CLOUDY    46  38  73 SW10      29.42F
HAYS           CLOUDY    45  41  86 SW9       29.41F
GOODLAND       CLOUDY    33  30  88 CALM      29.40F
$$




USA.gov is the U.S. government's official web portal to all federal, state and local government web resources and services.